Station Historical Data
Daily Summary for June 19, 2012 Units:  Metric    English   Both
« Previous Day
Next Day »
Daily Weekly Monthly Yearly Custom
  High: Low: Average:
Temperature: 31.2 °C 19.5 °C 25.8 °C
Dew Point: 20.5 °C 16 °C 18.2 °C
Humidity: 86% 42% 64%
Wind Speed: 20.9km/h 0km/h 5.3km/h
Wind Gust: 22.5km/h - -
Wind- - SE
Pressure: 1018.8 hPa 1015.1 hPa -
Precipitation: 0 mm    
Historical Graphs
 
 
Tabular Data for June 19, 2012
Time Temperature Dew Point Pressure Wind Wind Speed Wind Gust Humidity Rainfall Rate (Hourly) Conditions
00:00 23.8 °C 19.1 °C 1015.1 hPa SE 3.2 km/h 4.8 km/h 75% 0 mm
00:05 23.8 °C 19.1 °C 1015.5 hPa SE 4.8 km/h 4.8 km/h 75% 0 mm
00:11 23.8 °C 19.1 °C 1015.5 hPa SE 4.8 km/h 6.4 km/h 75% 0 mm
00:16 23.8 °C 19.1 °C 1015.5 hPa SE 3.2 km/h 6.4 km/h 75% 0 mm
00:21 23.7 °C 19.1 °C 1015.5 hPa SE 3.2 km/h 6.4 km/h 75% 0 mm
00:26 23.7 °C 19 °C 1015.5 hPa SE 3.2 km/h 4.8 km/h 75% 0 mm
00:31 23.6 °C 19.1 °C 1015.8 hPa SE 4.8 km/h 6.4 km/h 76% 0 mm
00:36 23.6 °C 19.1 °C 1015.5 hPa SE 4.8 km/h 6.4 km/h 76% 0 mm
00:41 23.5 °C 19 °C 1015.5 hPa SE 3.2 km/h 8 km/h 76% 0 mm
00:46 23.6 °C 18.9 °C 1015.5 hPa SE 6.4 km/h 9.7 km/h 75% 0 mm
00:51 23.6 °C 18.9 °C 1015.5 hPa SE 3.2 km/h 9.7 km/h 75% 0 mm
00:56 23.4 °C 19 °C 1015.5 hPa SSE 4.8 km/h 6.4 km/h 76% 0 mm
01:01 23.3 °C 18.8 °C 1015.5 hPa SSE 4.8 km/h 8 km/h 76% 0 mm
01:06 23.3 °C 18.8 °C 1015.5 hPa SE 3.2 km/h 8 km/h 76% 0 mm
01:11 23.3 °C 18.6 °C 1015.5 hPa SE 6.4 km/h 8 km/h 75% 0 mm
01:16 23.4 °C 18.5 °C 1015.5 hPa SE 4.8 km/h 8 km/h 74% 0 mm
01:21 23.3 °C 18.4 °C 1015.5 hPa SSE 3.2 km/h 6.4 km/h 74% 0 mm
01:26 23.3 °C 18.4 °C 1015.5 hPa SSE 3.2 km/h 8 km/h 74% 0 mm
01:31 23.1 °C 18.2 °C 1015.5 hPa SSE 3.2 km/h 8 km/h 74% 0 mm
01:36 23.1 °C 18.2 °C 1015.5 hPa SE 3.2 km/h 4.8 km/h 74% 0 mm
01:41 23.1 °C 17.9 °C 1015.5 hPa ESE 4.8 km/h 6.4 km/h 73% 0 mm
01:46 23.1 °C 18 °C 1015.5 hPa ESE 6.4 km/h 8 km/h 73% 0 mm
01:51 23.1 °C 18 °C 1015.5 hPa SE 4.8 km/h 8 km/h 73% 0 mm
01:56 23.1 °C 17.8 °C 1015.5 hPa SE 4.8 km/h 8 km/h 72% 0 mm
02:01 23.1 °C 17.8 °C 1015.5 hPa SE 8 km/h 9.7 km/h 72% 0 mm
02:06 23.1 °C 17.7 °C 1015.5 hPa SE 11.3 km/h 11.3 km/h 72% 0 mm
02:11 23 °C 17.7 °C 1015.5 hPa SE 4.8 km/h 11.3 km/h 72% 0 mm
02:16 22.9 °C 17.6 °C 1015.5 hPa SE 8 km/h 8 km/h 72% 0 mm
02:21 22.8 °C 17.7 °C 1015.5 hPa SSE 6.4 km/h 6.4 km/h 73% 0 mm
02:26 22.6 °C 17.5 °C 1015.5 hPa SE 4.8 km/h 6.4 km/h 73% 0 mm
02:31 22.4 °C 17.6 °C 1015.5 hPa SE 4.8 km/h 6.4 km/h 74% 0 mm
02:36 22.3 °C 17.7 °C 1015.5 hPa SSE 3.2 km/h 6.4 km/h 75% 0 mm
02:41 22.2 °C 17.5 °C 1015.5 hPa South 3.2 km/h 6.4 km/h 75% 0 mm
02:46 22.1 °C 17.7 °C 1015.5 hPa SE 4.8 km/h 6.4 km/h 76% 0 mm
02:51 22 °C 17.6 °C 1015.5 hPa South 3.2 km/h 6.4 km/h 76% 0 mm
02:56 21.9 °C 17.5 °C 1015.1 hPa SE 3.2 km/h 8 km/h 76% 0 mm
03:02 22 °C 17.6 °C 1015.5 hPa SSE 1.6 km/h 3.2 km/h 76% 0 mm
03:07 22 °C 17.6 °C 1015.5 hPa SSE 3.2 km/h 6.4 km/h 76% 0 mm
03:12 22 °C 17.6 °C 1015.5 hPa SSE 4.8 km/h 6.4 km/h 76% 0 mm
03:17 21.9 °C 17.5 °C 1015.1 hPa SSE 3.2 km/h 6.4 km/h 76% 0 mm
03:22 21.7 °C 17.5 °C 1015.5 hPa SE 6.4 km/h 6.4 km/h 77% 0 mm
03:27 21.8 °C 17.4 °C 1015.5 hPa SE 4.8 km/h 8 km/h 76% 0 mm
03:32 21.9 °C 17.5 °C 1015.1 hPa SSE 6.4 km/h 6.4 km/h 76% 0 mm
03:37 21.9 °C 17.5 °C 1015.1 hPa SE 8 km/h 8 km/h 76% 0 mm
03:42 22 °C 17.4 °C 1015.1 hPa SE 6.4 km/h 6.4 km/h 75% 0 mm
03:47 21.9 °C 17.3 °C 1015.1 hPa SE 4.8 km/h 8 km/h 75% 0 mm
03:52 21.9 °C 17.3 °C 1015.1 hPa SE 6.4 km/h 6.4 km/h 75% 0 mm
03:57 21.9 °C 17.3 °C 1015.1 hPa SE 6.4 km/h 6.4 km/h 75% 0 mm
04:02 22 °C 17.4 °C 1015.1 hPa ESE 4.8 km/h 8 km/h 75% 0 mm
04:07 22 °C 17.4 °C 1015.1 hPa SE 8 km/h 8 km/h 75% 0 mm
04:12 21.9 °C 17.3 °C 1015.5 hPa SE 4.8 km/h 8 km/h 75% 0 mm
04:17 21.8 °C 17.4 °C 1015.5 hPa SE 4.8 km/h 6.4 km/h 76% 0 mm
04:22 21.6 °C 17.2 °C 1015.5 hPa SE 3.2 km/h 4.8 km/h 76% 0 mm
04:27 21.4 °C 17.2 °C 1015.5 hPa SE 3.2 km/h 4.8 km/h 77% 0 mm
04:32 21.4 °C 17.2 °C 1015.5 hPa SE 6.4 km/h 6.4 km/h 77% 0 mm
04:37 21.5 °C 17.3 °C 1015.5 hPa SE 8 km/h 8 km/h 77% 0 mm
04:42 21.4 °C 17.2 °C 1015.5 hPa ESE 3.2 km/h 6.4 km/h 77% 0 mm
04:47 21.4 °C 17.2 °C 1015.8 hPa SE 4.8 km/h 6.4 km/h 77% 0 mm
04:52 21.4 °C 17.2 °C 1015.8 hPa SE 3.2 km/h 6.4 km/h 77% 0 mm
04:57 21.4 °C 17.2 °C 1015.8 hPa SE 4.8 km/h 6.4 km/h 77% 0 mm
05:02 21.4 °C 17.4 °C 1015.8 hPa SE 3.2 km/h 4.8 km/h 78% 0 mm
05:07 21.4 °C 17.4 °C 1015.8 hPa South 3.2 km/h 3.2 km/h 78% 0 mm
05:12 21.4 °C 17.2 °C 1015.8 hPa South 3.2 km/h 4.8 km/h 77% 0 mm
05:17 21.6 °C 17.4 °C 1015.8 hPa South 4.8 km/h 8 km/h 77% 0 mm
05:22 21.8 °C 17.6 °C 1015.8 hPa South 6.4 km/h 8 km/h 77% 0 mm
05:27 21.8 °C 17.4 °C 1015.8 hPa SSW 3.2 km/h 8 km/h 76% 0 mm
05:32 21.8 °C 17.4 °C 1016.1 hPa SSW 4.8 km/h 8 km/h 76% 0 mm
05:37 21.8 °C 17.4 °C 1016.1 hPa SSE 3.2 km/h 11.3 km/h 76% 0 mm
05:42 21.7 °C 17.4 °C 1016.1 hPa ESE 6.4 km/h 9.7 km/h 77% 0 mm
05:47 21.2 °C 17.4 °C 1016.1 hPa SE 4.8 km/h 8 km/h 79% 0 mm
05:52 20.9 °C 17.3 °C 1016.1 hPa Calm   3.2 km/h 80% 0 mm
05:57 20.8 °C 17.2 °C 1016.1 hPa SE 3.2 km/h 3.2 km/h 80% 0 mm
06:02 20.8 °C 17.4 °C 1016.1 hPa SE 3.2 km/h 4.8 km/h 81% 0 mm
06:07 20.8 °C 17.2 °C 1016.5 hPa SE 3.2 km/h 3.2 km/h 80% 0 mm
06:12 20.6 °C 17.2 °C 1016.5 hPa ESE 3.2 km/h 4.8 km/h 81% 0 mm
06:17 20.3 °C 17.1 °C 1016.5 hPa East 1.6 km/h 3.2 km/h 82% 0 mm
06:22 20.2 °C 17.2 °C 1016.5 hPa East 1.6 km/h 3.2 km/h 83% 0 mm
06:27 20.1 °C 17.1 °C 1016.8 hPa East 1.6 km/h 1.6 km/h 83% 0 mm
06:32 19.9 °C 16.9 °C 1016.8 hPa Calm   1.6 km/h 83% 0 mm
06:37 19.8 °C 17 °C 1016.8 hPa Calm   1.6 km/h 84% 0 mm
06:42 19.7 °C 17.1 °C 1016.8 hPa East 1.6 km/h 3.2 km/h 85% 0 mm
06:47 19.7 °C 17.1 °C 1016.8 hPa Calm   1.6 km/h 85% 0 mm
06:52 19.7 °C 17.1 °C 1017.2 hPa Calm   1.6 km/h 85% 0 mm
06:57 19.5 °C 17.1 °C 1017.2 hPa ENE 1.6 km/h 3.2 km/h 86% 0 mm
07:02 19.6 °C 17.2 °C 1017.2 hPa Calm   1.6 km/h 86% 0 mm
07:08 19.6 °C 17.2 °C 1017.2 hPa Calm   1.6 km/h 86% 0 mm
07:13 19.8 °C 17.4 °C 1017.2 hPa ESE 3.2 km/h 3.2 km/h 86% 0 mm
07:18 20.2 °C 17.6 °C 1017.2 hPa East 1.6 km/h 6.4 km/h 85% 0 mm
07:23 20.4 °C 17.9 °C 1017.2 hPa ESE 3.2 km/h 4.8 km/h 86% 0 mm
07:28 20.7 °C 17.9 °C 1017.2 hPa ESE 3.2 km/h 3.2 km/h 84% 0 mm
07:33 20.9 °C 18.1 °C 1017.5 hPa ESE 1.6 km/h 3.2 km/h 84% 0 mm
07:38 21.1 °C 18.1 °C 1017.5 hPa SE 4.8 km/h 4.8 km/h 83% 0 mm
07:43 21.3 °C 18.1 °C 1017.5 hPa SE 3.2 km/h 6.4 km/h 82% 0 mm
07:48 21.4 °C 18 °C 1017.5 hPa SE 1.6 km/h 4.8 km/h 81% 0 mm
07:53 21.4 °C 18.1 °C 1017.5 hPa ESE 4.8 km/h 6.4 km/h 81% 0 mm
07:58 21.4 °C 18.2 °C 1017.5 hPa ESE 1.6 km/h 6.4 km/h 82% 0 mm
08:03 21.6 °C 18.2 °C 1017.8 hPa Calm   3.2 km/h 81% 0 mm
08:08 22.1 °C 18.7 °C 1017.8 hPa Calm   1.6 km/h 81% 0 mm
08:13 22.3 °C 18.4 °C 1017.8 hPa SE 3.2 km/h 3.2 km/h 79% 0 mm
08:18 22.4 °C 18.4 °C 1018.2 hPa ESE 3.2 km/h 4.8 km/h 78% 0 mm
08:23 22.5 °C 18.5 °C 1018.2 hPa ESE 3.2 km/h 4.8 km/h 78% 0 mm
08:28 22.6 °C 18.5 °C 1018.2 hPa East 4.8 km/h 8 km/h 78% 0 mm
08:33 22.6 °C 18.4 °C 1018.2 hPa ESE 4.8 km/h 6.4 km/h 77% 0 mm
08:38 22.8 °C 18.8 °C 1018.2 hPa East 3.2 km/h 4.8 km/h 78% 0 mm
08:43 23.2 °C 19 °C 1018.2 hPa Calm   4.8 km/h 77% 0 mm
08:48 23.7 °C 19 °C 1018.2 hPa SE 1.6 km/h 6.4 km/h 75% 0 mm
08:53 23.8 °C 18.9 °C 1018.2 hPa ESE 9.7 km/h 9.7 km/h 74% 0 mm
08:58 23.9 °C 19.2 °C 1018.5 hPa SSE 4.8 km/h 8 km/h 75% 0 mm
09:03 24.1 °C 19 °C 1018.5 hPa SSE 6.4 km/h 8 km/h 73% 0 mm
09:08 24.4 °C 19.2 °C 1018.5 hPa SSE 8 km/h 8 km/h 73% 0 mm
09:13 24.6 °C 19.2 °C 1018.5 hPa SE 6.4 km/h 8 km/h 72% 0 mm
09:18 24.8 °C 19 °C 1018.5 hPa SE 6.4 km/h 9.7 km/h 70% 0 mm
09:23 25 °C 19.2 °C 1018.5 hPa SSE 3.2 km/h 12.9 km/h 70% 0 mm
09:28 25.2 °C 18.8 °C 1018.5 hPa SE 4.8 km/h 9.7 km/h 68% 0 mm
09:33 25.2 °C 18.9 °C 1018.5 hPa South 8 km/h 11.3 km/h 68% 0 mm
09:38 25.3 °C 19.2 °C 1018.5 hPa SSW 6.4 km/h 9.7 km/h 69% 0 mm
09:43 25.4 °C 19.3 °C 1018.5 hPa South 6.4 km/h 9.7 km/h 69% 0 mm
09:48 25.5 °C 19.2 °C 1018.5 hPa SE 9.7 km/h 11.3 km/h 68% 0 mm
09:53 25.7 °C 19.3 °C 1018.8 hPa SSE 6.4 km/h 9.7 km/h 68% 0 mm
09:58 25.8 °C 19.2 °C 1018.8 hPa SSE 8 km/h 11.3 km/h 67% 0 mm
10:03 26.1 °C 19.7 °C 1018.8 hPa SSE 11.3 km/h 12.9 km/h 68% 0 mm
10:08 26.1 °C 19.4 °C 1018.8 hPa SSE 9.7 km/h 12.9 km/h 67% 0 mm
10:13 26.1 °C 19.8 °C 1018.5 hPa SE 8 km/h 8 km/h 68% 0 mm
10:18 26.1 °C 19.9 °C 1018.5 hPa SSE 8 km/h 12.9 km/h 69% 0 mm
10:24 26.1 °C 19.4 °C 1018.5 hPa SE 4.8 km/h 8 km/h 67% 0 mm
10:29 26.4 °C 20.2 °C 1018.5 hPa SSE 4.8 km/h 6.4 km/h 69% 0 mm
10:34 26.4 °C 19.6 °C 1018.5 hPa SSE 4.8 km/h 14.5 km/h 66% 0 mm
10:39 26.6 °C 20.2 °C 1018.8 hPa SE 4.8 km/h 12.9 km/h 68% 0 mm
10:44 26.8 °C 20.4 °C 1018.8 hPa SSW 8 km/h 8 km/h 68% 0 mm
10:49 26.9 °C 19.6 °C 1018.5 hPa SE 9.7 km/h 11.3 km/h 64% 0 mm
10:54 26.9 °C 19.6 °C 1018.8 hPa South 3.2 km/h 9.7 km/h 64% 0 mm
10:59 27.1 °C 20.2 °C 1018.5 hPa Calm   1.6 km/h 66% 0 mm
11:04 27.4 °C 20.2 °C 1018.5 hPa SE 6.4 km/h 11.3 km/h 65% 0 mm
11:09 27.4 °C 20.2 °C 1018.8 hPa SE 4.8 km/h 9.7 km/h 65% 0 mm
11:14 27.7 °C 20.5 °C 1018.8 hPa SW 3.2 km/h 6.4 km/h 65% 0 mm
11:19 27.7 °C 19.8 °C 1018.8 hPa SW 6.4 km/h 12.9 km/h 62% 0 mm
11:24 27.7 °C 19.3 °C 1018.8 hPa SE 9.7 km/h 19.3 km/h 60% 0 mm
11:29 27.7 °C 18.7 °C 1018.8 hPa SW 8 km/h 14.5 km/h 58% 0 mm
11:34 27.9 °C 19.7 °C 1018.8 hPa SW 6.4 km/h 11.3 km/h 61% 0 mm
11:39 27.7 °C 19.8 °C 1018.5 hPa SSW 4.8 km/h 9.7 km/h 62% 0 mm
11:44 28.2 °C 19.7 °C 1018.8 hPa SW 9.7 km/h 14.5 km/h 60% 0 mm
11:49 27.9 °C 19.2 °C 1018.8 hPa SE 9.7 km/h 12.9 km/h 59% 0 mm
11:54 27.9 °C 19.7 °C 1018.5 hPa SSW 3.2 km/h 8 km/h 61% 0 mm
11:59 28.2 °C 19.2 °C 1018.5 hPa SW 6.4 km/h 9.7 km/h 58% 0 mm
12:04 28.4 °C 19.1 °C 1018.5 hPa South 6.4 km/h 14.5 km/h 57% 0 mm
12:09 28.5 °C 18.6 °C 1018.5 hPa SSW 3.2 km/h 9.7 km/h 55% 0 mm
12:14 28.1 °C 18.8 °C 1018.5 hPa West 4.8 km/h 8 km/h 57% 0 mm
12:19 28.2 °C 19.1 °C 1018.5 hPa SW 3.2 km/h 8 km/h 58% 0 mm
12:24 27.8 °C 18.6 °C 1018.5 hPa SW 3.2 km/h 8 km/h 57% 0 mm
12:29 28.2 °C 19.1 °C 1018.5 hPa WSW 4.8 km/h 9.7 km/h 58% 0 mm
12:34 28.5 °C 18.9 °C 1018.8 hPa South 6.4 km/h 12.9 km/h 56% 0 mm
12:39 28.6 °C 19.3 °C 1018.8 hPa South 6.4 km/h 9.7 km/h 57% 0 mm
12:44 28.8 °C 18.8 °C 1018.5 hPa SW 6.4 km/h 11.3 km/h 55% 0 mm
12:49 28.9 °C 18.7 °C 1018.5 hPa SE 9.7 km/h 16.1 km/h 54% 0 mm
12:54 29 °C 18.8 °C 1018.8 hPa ESE 9.7 km/h 14.5 km/h 54% 0 mm
12:59 28.9 °C 18.4 °C 1018.5 hPa SE 12.9 km/h 12.9 km/h 53% 0 mm
13:04 29.1 °C 17.9 °C 1018.8 hPa SE 11.3 km/h 19.3 km/h 51% 0 mm
13:09 28.7 °C 17.9 °C 1018.5 hPa SSW 4.8 km/h 14.5 km/h 52% 0 mm
13:14 28.6 °C 18.3 °C 1018.5 hPa SSE 6.4 km/h 9.7 km/h 54% 0 mm
13:19 28.8 °C 20.1 °C 1018.8 hPa SSE 8 km/h 8 km/h 59% 0 mm
13:24 29.2 °C 18.6 °C 1018.5 hPa SE 11.3 km/h 19.3 km/h 53% 0 mm
13:29 29.1 °C 18.3 °C 1018.5 hPa ESE 8 km/h 14.5 km/h 52% 0 mm
13:34 29 °C 18.4 °C 1018.5 hPa SE 8 km/h 19.3 km/h 53% 0 mm
13:39 29 °C 18.2 °C 1018.5 hPa SE 8 km/h 16.1 km/h 52% 0 mm
13:44 29 °C 18.2 °C 1018.5 hPa SE 3.2 km/h 11.3 km/h 52% 0 mm
13:49 29.1 °C 18.6 °C 1018.5 hPa ENE 4.8 km/h 14.5 km/h 53% 0 mm
13:54 29.3 °C 19.3 °C 1018.5 hPa ESE 6.4 km/h 8 km/h 55% 0 mm
13:59 29.4 °C 18.9 °C 1018.2 hPa SE 6.4 km/h 14.5 km/h 53% 0 mm
14:04 29.8 °C 18.2 °C 1018.2 hPa East 12.9 km/h 16.1 km/h 50% 0 mm
14:09 29.7 °C 17.2 °C 1018.2 hPa ENE 8 km/h 14.5 km/h 47% 0 mm
14:15 29.7 °C 17.8 °C 1018.2 hPa SSE 3.2 km/h 9.7 km/h 49% 0 mm
14:20 29.9 °C 17.4 °C 1018.2 hPa SSE 12.9 km/h 17.7 km/h 47% 0 mm
14:25 29.8 °C 17.9 °C 1018.2 hPa SE 6.4 km/h 11.3 km/h 49% 0 mm
14:30 29.7 °C 17.9 °C 1018.2 hPa SSE 11.3 km/h 12.9 km/h 49% 0 mm
14:35 29.4 °C 17.9 °C 1018.2 hPa SE 16.1 km/h 16.1 km/h 50% 0 mm
14:40 29.4 °C 18.5 °C 1018.2 hPa SW 8 km/h 12.9 km/h 52% 0 mm
14:45 29.8 °C 17.7 °C 1017.8 hPa SSW 4.8 km/h 9.7 km/h 48% 0 mm
14:50 30.1 °C 19.4 °C 1017.8 hPa East 12.9 km/h 20.9 km/h 53% 0 mm
14:55 30.2 °C 19.3 °C 1017.8 hPa ESE 6.4 km/h 14.5 km/h 52% 0 mm
15:00 30.2 °C 18 °C 1018.2 hPa SE 11.3 km/h 19.3 km/h 48% 0 mm
15:05 30.4 °C 18.2 °C 1017.8 hPa SE 14.5 km/h 14.5 km/h 48% 0 mm
15:10 30.6 °C 19.3 °C 1017.8 hPa SE 4.8 km/h 9.7 km/h 51% 0 mm
15:15 30.4 °C 18.5 °C 1017.8 hPa SE 9.7 km/h 9.7 km/h 49% 0 mm
15:20 30.4 °C 17.8 °C 1017.5 hPa SSE 9.7 km/h 11.3 km/h 47% 0 mm
15:25 30.7 °C 18.4 °C 1017.5 hPa SSE 3.2 km/h 9.7 km/h 48% 0 mm
15:30 30.5 °C 17.2 °C 1017.5 hPa ESE 8 km/h 16.1 km/h 45% 0 mm
15:35 30.4 °C 17.2 °C 1017.5 hPa SE 6.4 km/h 12.9 km/h 45% 0 mm
15:40 30.6 °C 18 °C 1017.5 hPa SE 16.1 km/h 16.1 km/h 47% 0 mm
15:45 30.4 °C 17.2 °C 1017.5 hPa SE 6.4 km/h 11.3 km/h 45% 0 mm
15:50 30.3 °C 17.8 °C 1017.5 hPa SE 9.7 km/h 16.1 km/h 47% 0 mm
15:55 30.5 °C 17.6 °C 1017.5 hPa SSE 9.7 km/h 22.5 km/h 46% 0 mm
16:00 30.7 °C 16.7 °C 1017.2 hPa SE 6.4 km/h 17.7 km/h 43% 0 mm
16:05 31 °C 18.1 °C 1017.2 hPa SE 1.6 km/h 9.7 km/h 46% 0 mm
16:10 31.1 °C 17.8 °C 1017.2 hPa ESE 6.4 km/h 6.4 km/h 45% 0 mm
16:15 31.2 °C 17.6 °C 1017.2 hPa East 8 km/h 9.7 km/h 44% 0 mm
16:20 30.9 °C 17.7 °C 1017.2 hPa SE 4.8 km/h 16.1 km/h 45% 0 mm
16:25 30.8 °C 17.8 °C 1017.2 hPa ESE 12.9 km/h 17.7 km/h 46% 0 mm
16:30 30.6 °C 16.9 °C 1017.2 hPa ESE 12.9 km/h 16.1 km/h 44% 0 mm
16:35 30 °C 16.8 °C 1016.8 hPa SE 4.8 km/h 16.1 km/h 45% 0 mm
16:40 30.2 °C 17.3 °C 1016.8 hPa ENE 12.9 km/h 19.3 km/h 46% 0 mm
16:45 30.6 °C 17.9 °C 1016.8 hPa ESE 1.6 km/h 9.7 km/h 47% 0 mm
16:50 30.6 °C 17 °C 1016.8 hPa ESE 12.9 km/h 16.1 km/h 44% 0 mm
16:55 30.3 °C 16 °C 1016.8 hPa ESE 11.3 km/h 19.3 km/h 42% 0 mm
17:00 30.3 °C 17.1 °C 1016.8 hPa SE 8 km/h 12.9 km/h 45% 0 mm
17:06 30.4 °C 16.8 °C 1016.8 hPa SE 8 km/h 11.3 km/h 44% 0 mm
17:11 30.6 °C 17.3 °C 1016.5 hPa SE 9.7 km/h 12.9 km/h 45% 0 mm
17:16 30.8 °C 17.2 °C 1016.5 hPa ESE 6.4 km/h 12.9 km/h 44% 0 mm
17:21 30.8 °C 16.4 °C 1016.5 hPa SE 8 km/h 12.9 km/h 42% 0 mm
17:26 30.9 °C 17.6 °C 1016.5 hPa SSE 6.4 km/h 11.3 km/h 45% 0 mm
17:31 30.8 °C 16.4 °C 1016.5 hPa SE 20.9 km/h 20.9 km/h 42% 0 mm
17:36 30.7 °C 16.3 °C 1016.5 hPa SSE 8 km/h 14.5 km/h 42% 0 mm
17:41 30.8 °C 17.2 °C 1016.5 hPa East 8 km/h 9.7 km/h 44% 0 mm
17:46 30.8 °C 17.2 °C 1016.5 hPa SE 8 km/h 16.1 km/h 44% 0 mm
17:51 31 °C 16.9 °C 1016.5 hPa SE 11.3 km/h 14.5 km/h 43% 0 mm
17:56 30.6 °C 16.6 °C 1016.5 hPa ESE 9.7 km/h 17.7 km/h 43% 0 mm
18:01 30.6 °C 16.6 °C 1016.1 hPa ESE 9.7 km/h 17.7 km/h 43% 0 mm
18:06 30.6 °C 16.2 °C 1016.1 hPa SE 9.7 km/h 17.7 km/h 42% 0 mm
18:11 30.6 °C 17.3 °C 1016.1 hPa SSE 6.4 km/h 9.7 km/h 45% 0 mm
18:16 30.8 °C 16.8 °C 1016.1 hPa East 8 km/h 9.7 km/h 43% 0 mm
18:21 30.8 °C 17.2 °C 1016.1 hPa ESE 3.2 km/h 6.4 km/h 44% 0 mm
18:26 30.8 °C 17.2 °C 1016.1 hPa SE 16.1 km/h 16.1 km/h 44% 0 mm
18:31 30.8 °C 17.5 °C 1016.1 hPa SSE 3.2 km/h 9.7 km/h 45% 0 mm
18:37 30.9 °C 17.2 °C 1015.8 hPa SE 9.7 km/h 16.1 km/h 44% 0 mm
18:42 30.7 °C 17.4 °C 1016.1 hPa SSE 12.9 km/h 16.1 km/h 45% 0 mm
18:47 30.6 °C 17.7 °C 1015.8 hPa ESE 9.7 km/h 12.9 km/h 46% 0 mm
18:52 30.5 °C 16.9 °C 1015.8 hPa ESE 6.4 km/h 14.5 km/h 44% 0 mm
18:57 30.6 °C 17.9 °C 1015.8 hPa SE 4.8 km/h 8 km/h 47% 0 mm
19:02 30.6 °C 16.9 °C 1015.8 hPa SE 11.3 km/h 12.9 km/h 44% 0 mm
19:07 30.4 °C 17.2 °C 1016.1 hPa SE 6.4 km/h 11.3 km/h 45% 0 mm
19:12 30.3 °C 17.1 °C 1016.1 hPa SE 11.3 km/h 16.1 km/h 45% 0 mm
19:17 30.3 °C 16.7 °C 1015.8 hPa ESE 6.4 km/h 11.3 km/h 44% 0 mm
19:22 30.3 °C 17.1 °C 1015.8 hPa ESE 8 km/h 9.7 km/h 45% 0 mm
19:27 30.2 °C 16.6 °C 1015.8 hPa SE 11.3 km/h 12.9 km/h 44% 0 mm
19:32 30.2 °C 17.3 °C 1015.8 hPa SE 3.2 km/h 9.7 km/h 46% 0 mm
19:37 30.1 °C 17.6 °C 1015.8 hPa SE 4.8 km/h 9.7 km/h 47% 0 mm
19:42 30.1 °C 17.8 °C 1015.8 hPa ESE 6.4 km/h 8 km/h 48% 0 mm
19:47 30 °C 17.8 °C 1015.8 hPa SE 4.8 km/h 6.4 km/h 48% 0 mm
19:52 29.9 °C 17.7 °C 1015.8 hPa SE 6.4 km/h 8 km/h 48% 0 mm
19:57 29.8 °C 17.9 °C 1015.8 hPa SE 4.8 km/h 8 km/h 49% 0 mm
20:02 29.7 °C 18.2 °C 1015.8 hPa SE 4.8 km/h 6.4 km/h 50% 0 mm
20:07 29.6 °C 18.1 °C 1015.8 hPa East 3.2 km/h 6.4 km/h 50% 0 mm
20:12 29.4 °C 18.6 °C 1015.8 hPa SE 3.2 km/h 4.8 km/h 52% 0 mm
20:17 29.3 °C 18.7 °C 1015.8 hPa ESE 1.6 km/h 4.8 km/h 53% 0 mm
20:22 29.2 °C 18.6 °C 1016.1 hPa ESE 3.2 km/h 4.8 km/h 53% 0 mm
20:27 28.9 °C 18.9 °C 1016.1 hPa SE 3.2 km/h 3.2 km/h 55% 0 mm
20:32 28.6 °C 18.7 °C 1016.1 hPa ESE 3.2 km/h 4.8 km/h 55% 0 mm
20:37 28.4 °C 18.8 °C 1016.1 hPa East 3.2 km/h 4.8 km/h 56% 0 mm
20:42 28.2 °C 18.8 °C 1016.1 hPa SE 1.6 km/h 3.2 km/h 57% 0 mm
20:47 27.9 °C 18.7 °C 1016.1 hPa ESE 3.2 km/h 3.2 km/h 57% 0 mm
20:52 27.7 °C 18.7 °C 1016.1 hPa ESE 1.6 km/h 1.6 km/h 58% 0 mm
20:57 27.4 °C 18.7 °C 1015.8 hPa SE 1.6 km/h 1.6 km/h 59% 0 mm
21:03 27 °C 18.8 °C 1016.1 hPa SE 1.6 km/h 1.6 km/h 61% 0 mm
21:08 26.7 °C 18.6 °C 1016.1 hPa ESE 1.6 km/h 1.6 km/h 61% 0 mm
21:13 26.5 °C 18.6 °C 1016.1 hPa Calm   1.6 km/h 62% 0 mm
21:18 26.2 °C 18.6 °C 1016.1 hPa Calm   1.6 km/h 63% 0 mm
21:23 26 °C 18.7 °C 1016.1 hPa Calm     64% 0 mm
21:28 25.8 °C 18.7 °C 1016.1 hPa Calm   1.6 km/h 65% 0 mm
21:33 25.6 °C 18.5 °C 1016.1 hPa Calm     65% 0 mm
21:38 25.4 °C 18.6 °C 1016.1 hPa Calm     66% 0 mm
21:43 25.2 °C 18.4 °C 1016.1 hPa Calm   1.6 km/h 66% 0 mm
21:48 25.2 °C 18.6 °C 1016.5 hPa Calm     67% 0 mm
21:53 25.1 °C 18.6 °C 1016.5 hPa ESE 1.6 km/h 1.6 km/h 67% 0 mm
21:58 25 °C 18.7 °C 1016.5 hPa SE 3.2 km/h 3.2 km/h 68% 0 mm
22:03 25.1 °C 18.5 °C 1016.5 hPa ESE 3.2 km/h 3.2 km/h 67% 0 mm
22:08 25 °C 18.7 °C 1016.5 hPa Calm   3.2 km/h 68% 0 mm
22:13 24.9 °C 18.6 °C 1016.5 hPa ESE 1.6 km/h 1.6 km/h 68% 0 mm
22:18 24.8 °C 18.7 °C 1016.8 hPa Calm   1.6 km/h 69% 0 mm
22:23 24.7 °C 18.8 °C 1016.5 hPa Calm   1.6 km/h 70% 0 mm
22:28 24.4 °C 18.6 °C 1016.5 hPa ESE 3.2 km/h 3.2 km/h 70% 0 mm
22:33 24.4 °C 18.8 °C 1016.8 hPa ESE 3.2 km/h 4.8 km/h 71% 0 mm
22:38 24.6 °C 18.5 °C 1016.8 hPa SE 3.2 km/h 4.8 km/h 69% 0 mm
22:43 24.5 °C 18.4 °C 1016.8 hPa SE 3.2 km/h 3.2 km/h 69% 0 mm
22:48 24.4 °C 18.3 °C 1016.8 hPa SE 3.2 km/h 4.8 km/h 69% 0 mm
22:53 24.3 °C 18.4 °C 1016.8 hPa ESE 1.6 km/h 1.6 km/h 70% 0 mm
22:58 24.2 °C 18.4 °C 1017.2 hPa SE 1.6 km/h 3.2 km/h 70% 0 mm
23:03 24.2 °C 18.6 °C 1017.2 hPa SE 1.6 km/h 1.6 km/h 71% 0 mm
23:08 24 °C 18.4 °C 1017.2 hPa Calm     71% 0 mm
23:13 23.7 °C 18.1 °C 1017.2 hPa Calm     71% 0 mm
23:18 23.3 °C 18.2 °C 1017.5 hPa Calm     73% 0 mm
23:23 23.1 °C 18.4 °C 1017.5 hPa Calm     75% 0 mm
23:28 23 °C 18.3 °C 1017.5 hPa Calm     75% 0 mm
23:33 22.7 °C 18.3 °C 1017.5 hPa Calm     76% 0 mm
23:38 22.6 °C 18.5 °C 1017.5 hPa Calm     78% 0 mm
23:43 22.7 °C 18.4 °C 1017.5 hPa SE 1.6 km/h 1.6 km/h 77% 0 mm
23:48 22.7 °C 18.5 °C 1017.5 hPa SE 1.6 km/h 1.6 km/h 77% 0 mm
23:54 22.9 °C 18.5 °C 1017.5 hPa ESE 1.6 km/h 3.2 km/h 76% 0 mm
23:59 23.1 °C 18.4 °C 1017.5 hPa ESE 3.2 km/h 3.2 km/h 75% 0 mm
Compliments of Weather Underground